[[{"header":{"parameterUnit":"m.s-1","parameterCategory":1,"la1":30.2991,"la2":30.254,"lo1":-89.0895,"lo2":-89.0444,"dy":0.0017,"dx":0.0017,"nx":28,"ny":28,"refTime":"2026-01-10T09:00:00:Z","depth":0,"parameterNumber":2,"parameterNumberName":"U-component_of_WINDS"},"data":[0,0,0,0,0,0,0,0,0,0,0,0,0,0,0,0,0,0,0,0,0,0,0,0,0,0,0,0,0,0,0,0,0,0,0,0,0,0,0,0,0,0,0,0,0,0,0,0,0,0,0,0,0,0,0,0,0,0,0.5036,0.5036,0,0.5048,0.5048,0.5048,0.5038,0.5037,0.5037,0.5037,0.505,0.5051,0.5052,0,0,0,0,0,0,0,0,0,0,0,0,0,0.5005,0.5006,0.5035,0.5036,0.5036,0.5048,0.5048,0.5048,0.5038,0.5037,0.5037,0.5036,0.505,0.5051,0.5052,0,0,0,0,0,0,0,0,0,0,0,0,0,0.5018,0.5006,0.5035,0.5032,0.5032,0.5047,0.5048,0.5048,0.5038,0.5037,0.5037,0.5036,0.505,0.5051,0.5052,0.5071,0,0,0.5055,0.5056,0,0,0,0,0,0,0,0,0.5017,0.5019,0.5033,0.5033,0.5032,0.5041,0.5042,0.5056,0.5038,0.5036,0.5037,0.5036,0.5048,0.5049,0.5053,0.5072,0.5073,0.5055,0.5056,0.5057,0.5057,0,0,0,0,0,0,0,0.5016,0.5019,0.504,0.5033,0.5033,0.5031,0.5032,0.5045,0.5045,0.5036,0.5035,0.5037,0.5047,0.5051,0.5053,0.5073,0.5055,0.5056,0.5057,0.5058,0.511,0.511,0,0,0,0,0,0,0.5016,0.5018,0.504,0.5041,0.5023,0.5032,0.5033,0.5039,0.5045,0.5045,0.5037,0.5036,0.505,0.5051,0.5053,0.5077,0.5057,0.5058,0.5058,0.5109,0.511,0.5111,0,0,0,0,0,0,0.5015,0.5018,0.5039,0.5029,0.5032,0.5033,0.5039,0.5039,0.5043,0.5046,0.5046,0.5041,0.5049,0.5052,0.5067,0.5077,0.5058,0.5059,0.5108,0.5109,0.511,0.5124,0,0,0,0,0,0,0.5014,0.5018,0.5025,0.5029,0.5032,0.5053,0.504,0.504,0.5045,0.5044,0.505,0.505,0.5049,0.5065,0.5068,0.5079,0.506,0.5107,0.5109,0.511,0.5123,0.5126,0.5128,0,0,0,0,0,0.5013,0.5028,0.5025,0.5028,0.5041,0.5053,0.5055,0.5053,0.5046,0.5053,0.5055,0.505,0.5076,0.5067,0.507,0.5081,0.5107,0.5108,0.511,0.5122,0.5125,0.5128,0,0,0,0,0,0,0.5025,0.5029,0.5025,0.5042,0.5048,0.5052,0.5061,0.5057,0.5064,0.5063,0.5061,0.5062,0.5079,0.5081,0.5072,0.51,0.509,0.5092,0.5098,0.5101,0.5104,0.5103,0.5061,0,0,0,0,0,0.503,0.5039,0.5042,0.5056,0.5059,0.506,0.5065,0.5063,0.5068,0.5071,0.5074,0.508,0.5089,0.5095,0.5104,0.5123,0.5125,0.5132,0.5135,0.5137,0.5139,0.515,0.5153,0.5116,0.5116,0.5116,0,0,0.5039,0.5042,0.5048,0.5059,0.5063,0.5073,0.5062,0.5073,0.508,0.5073,0.5087,0.509,0.5096,0.5114,0.5121,0.5116,0.515,0.5139,0.5141,0.5142,0.5152,0.5156,0.5159,0.5117,0.5117,0.5117,0,0,0.5062,0.5065,0.5078,0.5082,0.5088,0.5088,0.5091,0.5096,0.5097,0.5112,0.5107,0.5116,0.5132,0.5137,0.5141,0.5166,0.5162,0.5169,0.5183,0.5194,0.5197,0.5199,0.5209,0.5212,0.5171,0.5171,0.5171,0,0.5073,0.5088,0.5085,0.5097,0.5102,0.5095,0.5108,0.5113,0.5121,0.5125,0.5119,0.5139,0.5143,0.5162,0.5168,0.5172,0.5176,0.5169,0.5196,0.5199,0.5201,0.521,0.5214,0.5172,0.5172,0.5172,0.5172,0,0.5102,0.5112,0.5122,0.513,0.5136,0.5149,0.5148,0.5155,0.5153,0.5154,0.5169,0.5173,0.5183,0.5187,0.5185,0.5206,0.5203,0.5197,0.5186,0.5206,0.5214,0.5218,0.5174,0.5173,0.5173,0.5173,0,0,0.5132,0.5139,0.5143,0.5147,0.5153,0.5161,0.5173,0.5183,0.5189,0.5195,0.5205,0.5219,0.5214,0.5219,0.5218,0.5227,0.5247,0.522,0.522,0.5225,0.5271,0.5276,0.528,0.5244,0.5245,0.5245,0.527,0,0.5156,0.5177,0.5175,0.5195,0.5205,0.5199,0.521,0.5215,0.5216,0.5225,0.5227,0.5237,0.5228,0.5232,0.524,0.5243,0.5256,0.5241,0.5254,0.5255,0.5253,0.5284,0.5289,0.5313,0.5274,0.5274,0.5275,0,0.5186,0.5193,0.5214,0.5219,0.5223,0.5233,0.5242,0.525,0.5256,0.5256,0.5262,0.5259,0.5272,0.5261,0.5279,0.5269,0.5274,0.5276,0.5277,0.5279,0.5266,0.5287,0.532,0.5324,0.528,0.5279,0.5279,0,0.5206,0.5221,0.5236,0.524,0.5246,0.5253,0.5256,0.5261,0.5267,0.5275,0.5279,0.5288,0.5293,0.53,0.53,0.5292,0.5319,0.5307,0.532,0.532,0.5326,0.5326,0.5361,0.5329,0.5329,0.5329,0.5329,0,0.5233,0.5246,0.5246,0.5255,0.527,0.5268,0.5283,0.5285,0.529,0.53,0.5295,0.5304,0.5303,0.5313,0.5312,0.5328,0.533,0.5331,0.5331,0.5332,0.5332,0.5336,0.5334,0.533,0.5329,0.5329,0.5329,0,0.5259,0.5259,0.5275,0.5279,0.5281,0.5292,0.5296,0.5305,0.5306,0.5318,0.5321,0.5323,0.5334,0.5334,0.5347,0.5347,0.5366,0.5363,0.5363,0.5363,0.5376,0.5375,0.5415,0.5421,0.5384,0.5385,0.5385,0,0.5276,0.5286,0.5292,0.5298,0.5301,0.5311,0.5317,0.5316,0.5322,0.533,0.5338,0.5349,0.5357,0.5375,0.5378,0.5388,0.5386,0.5399,0.5387,0.5388,0.5387,0.5386,0.5387,0.5402,0.5402,0.5403,0.5403,0,0.5306,0.5306,0.5314,0.5324,0.5331,0.5338,0.5344,0.535,0.5349,0.5357,0.5368,0.5374,0.5387,0.5398,0.5408,0.5411,0.5407,0.5407,0.541,0.5411,0.5411,0.5412,0.537,0.5406,0.5405,0.5405,0.5405,0.5405,0.5328,0.5337,0.5343,0.5353,0.5358,0.5364,0.5373,0.5375,0.5384,0.5395,0.5393,0.5406,0.5412,0.5424,0.5429,0.5439,0.5434,0.5439,0.544,0.5442,0.5443,0.5409,0.544,0.544,0.544,0.544,0.544,0,0.5359,0.5362,0.5371,0.5381,0.5389,0.5384,0.5391,0.5399,0.541,0.5416,0.5424,0.5437,0.5448,0.5451,0.5461,0.5469,0.5467,0.5471,0.5471,0.5472,0.5446,0.5443,0.5472,0.5472,0.5472,0.5472,0.5472,0.5472,0.5375,0.5391,0.5391,0.5409,0.5412,0.5424,0.5429,0.5435,0.544,0.5455,0.5463,0.5465,0.5471,0.5481,0.5491,0.5491,0.5496,0.5501,0.5501,0.5477,0.5474,0.5471,0.5467,0.5502,0.5502,0.5526,0.5526,0.5526]},{"header":{"parameterUnit":"m.s-1","parameterCategory":1,"la1":30.2991,"la2":30.254,"lo1":-89.0895,"lo2":-89.0444,"dy":0.0017,"dx":0.0017,"nx":28,"ny":28,"refTime":"2026-01-10T09:00:00:Z","depth":0,"parameterNumber":3,"parameterNumberName":"V-component_of_WINDS"},"data":[0,0,0,0,0,0,0,0,0,0,0,0,0,0,0,0,0,0,0,0,0,0,0,0,0,0,0,0,0,0,0,0,0,0,0,0,0,0,0,0,0,0,0,0,0,0,0,0,0,0,0,0,0,0,0,0,0,0,3.8725,3.8726,0,3.8829,3.8831,3.8832,3.8844,3.8843,3.8842,3.8841,3.895,3.8954,3.8957,0,0,0,0,0,0,0,0,0,0,0,0,0,3.8539,3.8542,3.8725,3.8726,3.8728,3.8829,3.8831,3.8832,3.8845,3.8843,3.8842,3.8841,3.8949,3.8953,3.8958,0,0,0,0,0,0,0,0,0,0,0,0,0,3.8629,3.8543,3.8725,3.8746,3.8749,3.8829,3.8831,3.8833,3.8845,3.8843,3.8842,3.884,3.8947,3.8953,3.8958,3.9025,0,0,3.8976,3.8979,0,0,0,0,0,0,0,0,3.8624,3.8636,3.8742,3.8745,3.8748,3.8822,3.8805,3.8897,3.8845,3.8809,3.8841,3.884,3.8909,3.8918,3.8941,3.903,3.9035,3.8977,3.898,3.8983,3.8984,0,0,0,0,0,0,0,3.8618,3.8632,3.8766,3.8743,3.8747,3.8751,3.8762,3.8822,3.8866,3.8812,3.8813,3.8825,3.891,3.8935,3.8943,3.9036,3.8976,3.8982,3.8985,3.8987,3.9188,3.9189,0,0,0,0,0,0,3.8607,3.8626,3.8763,3.8769,3.8681,3.8756,3.8768,3.88,3.8865,3.8874,3.8826,3.8825,3.8926,3.8937,3.8947,3.9031,3.8983,3.8988,3.8991,3.9186,3.9188,3.919,0,0,0,0,0,0,3.8603,3.8619,3.8759,3.8698,3.8716,3.8761,3.8796,3.8803,3.8828,3.8876,3.8884,3.8843,3.8925,3.8939,3.9006,3.9035,3.8991,3.8996,3.9183,3.9186,3.9189,3.9198,0,0,0,0,0,0,3.8598,3.8618,3.8643,3.8699,3.8719,3.8815,3.8798,3.8806,3.8837,3.8837,3.8895,3.8903,3.8925,3.8997,3.9012,3.9042,3.9,3.9181,3.9185,3.9188,3.9196,3.9201,3.9206,0,0,0,0,0,3.8591,3.8641,3.8644,3.8661,3.8752,3.8817,3.8829,3.8853,3.884,3.8866,3.8897,3.8901,3.9029,3.9004,3.902,3.9053,3.9179,3.9184,3.9188,3.9193,3.92,3.9206,0,0,0,0,0,0,3.8588,3.8649,3.8653,3.8722,3.8764,3.8819,3.8853,3.8859,3.8906,3.8904,3.8932,3.8945,3.9011,3.9038,3.9009,3.9122,3.9103,3.9111,3.9102,3.9109,3.9113,3.9106,3.9005,0,0,0,0,0,3.8595,3.8642,3.8693,3.875,3.8771,3.8808,3.8837,3.8852,3.8897,3.8915,3.8951,3.8995,3.9046,3.9078,3.9127,3.9199,3.9213,3.923,3.9235,3.9239,3.9246,3.9288,3.9297,3.9204,3.9204,3.9204,0,0,3.8611,3.865,3.8678,3.875,3.8784,3.8834,3.8823,3.8875,3.8912,3.8923,3.8989,3.9017,3.9068,3.9138,3.9171,3.9163,3.9274,3.9244,3.9247,3.9252,3.9293,3.9302,3.931,3.9207,3.9206,3.9206,0,0,3.8666,3.8699,3.8751,3.8786,3.8838,3.8862,3.8874,3.8928,3.8948,3.9014,3.9024,3.9068,3.9154,3.9191,3.922,3.929,3.9295,3.9305,3.9332,3.9373,3.938,3.9387,3.9414,3.9423,3.9311,3.9311,3.9311,0,3.8679,3.8753,3.8777,3.8829,3.8862,3.8873,3.8927,3.8959,3.9025,3.9047,3.9037,3.9146,3.9181,3.9261,3.9278,3.93,3.9317,3.9299,3.9377,3.9384,3.9391,3.9417,3.9426,3.9312,3.9312,3.9312,3.9312,0,3.8768,3.882,3.8855,3.8918,3.8954,3.9007,3.9039,3.9073,3.9085,3.9111,3.9179,3.9222,3.928,3.93,3.9312,3.9382,3.9376,3.9371,3.9353,3.94,3.9425,3.9435,3.9313,3.9313,3.9313,3.9312,0,0,3.8825,3.89,3.8913,3.8943,3.9002,3.9042,3.9096,3.9153,3.9182,3.9227,3.9274,3.9346,3.9342,3.9376,3.9392,3.9428,3.9483,3.9419,3.9421,3.9431,3.9566,3.9571,3.9582,3.9486,3.9488,3.949,3.9562,0,3.8888,3.8984,3.9007,3.9089,3.9138,3.915,3.9197,3.9238,3.9264,3.931,3.9338,3.939,3.938,3.9401,3.9436,3.9469,3.9511,3.9463,3.9532,3.9534,3.9521,3.9595,3.96,3.9667,3.9572,3.9574,3.9575,0,3.8974,3.9022,3.9109,3.9162,3.9184,3.9225,3.9281,3.9323,3.9371,3.9388,3.9426,3.9439,3.9496,3.9474,3.9555,3.9522,3.9552,3.9572,3.9575,3.9584,3.9559,3.9608,3.9688,3.9699,3.959,3.9589,3.9588,0,3.901,3.9095,3.9159,3.9183,3.9246,3.9276,3.9304,3.935,3.9383,3.9431,3.9454,3.9508,3.9538,3.958,3.9608,3.9589,3.9687,3.9667,3.9704,3.9704,3.9726,3.9725,3.9815,3.9741,3.9741,3.9741,3.9741,0,3.9079,3.9133,3.9176,3.9215,3.9276,3.9302,3.9362,3.939,3.9431,3.9477,3.949,3.9533,3.9566,3.9614,3.9636,3.9701,3.9714,3.973,3.9736,3.973,3.9729,3.9752,3.9749,3.9744,3.9743,3.9742,3.9742,0,3.913,3.916,3.9231,3.9285,3.93,3.9343,3.939,3.943,3.9455,3.9514,3.9529,3.957,3.9627,3.9658,3.973,3.9745,3.9818,3.982,3.9802,3.9805,3.9842,3.9839,3.9951,3.9968,3.9881,3.9882,3.9883,0,3.9174,3.9215,3.9274,3.9306,3.9334,3.9385,3.9419,3.9446,3.9482,3.954,3.9573,3.963,3.9679,3.977,3.9807,3.9862,3.9867,3.9902,3.9875,3.9869,3.987,3.9869,3.9874,3.9908,3.9909,3.9909,3.991,0,3.9248,3.9262,3.931,3.9364,3.9405,3.9449,3.9493,3.9518,3.9553,3.9592,3.9651,3.9688,3.9761,3.9819,3.9878,3.9907,3.9916,3.9918,3.993,3.9926,3.9915,3.9924,3.9818,3.9915,3.9915,3.9914,3.9914,3.9914,3.9299,3.9337,3.9385,3.9439,3.9475,3.9515,3.9556,3.9587,3.9636,3.9698,3.9711,3.9773,3.9821,3.9901,3.9932,3.9982,3.9975,3.9992,3.9997,4.0001,4.0004,3.9905,3.9992,3.9992,3.9992,3.9992,3.9992,0,3.9376,3.9408,3.9457,3.9518,3.9561,3.9563,3.9612,3.9648,3.9703,3.9747,3.9794,3.9862,3.9919,3.996,4.0018,4.005,4.0056,4.0065,4.0064,4.0071,4.0005,3.999,4.006,4.006,4.006,4.006,4.006,4.006,3.9422,3.9488,3.9506,3.959,3.9621,3.9683,3.9711,3.9749,3.9784,3.986,3.9907,3.9933,3.9977,4.0038,4.0091,4.0101,4.0123,4.0133,4.0144,4.0083,4.0076,4.0069,4.0055,4.0137,4.0137,4.0206,4.0207,4.0207]}]]